| time (UTC) | temp C | wind direction | speed KPH | gust KPH | rain 1hr cm | rain 24hr cm | rain mn cm | humidity % | barometer mb |
| 20260903205016 | 36 | 248 | 3.2 | 9.7 | 0.00 | 0.00 | 0.00 | 46 | 1014.9 |
| 20260903204016 | 36 | 248 | 3.2 | 8.0 | 0.00 | 0.00 | 0.00 | 48 | 1015.0 |
| 20260903203016 | 36 | 248 | 6.4 | 14.5 | 0.00 | 0.00 | 0.00 | 46 | 1015.2 |
| 20260903202016 | 36 | 248 | 4.8 | 8.0 | 0.00 | 0.00 | 0.00 | 48 | 1015.1 |
| 20260903201016 | 36 | 158 | 3.2 | 8.0 | 0.00 | 0.00 | 0.00 | 47 | 1015.4 |
| 20260903200016 | 36 | 248 | 4.8 | 11.3 | 0.00 | 0.00 | 0.00 | 45 | 1015.5 |
| 20260903195016 | 36 | 248 | 3.2 | 12.9 | 0.00 | 0.00 | 0.00 | 50 | 1015.6 |
| 20260903194016 | 36 | 248 | 3.2 | 11.3 | 0.00 | 0.00 | 0.00 | 52 | 1015.6 |
| 20260903193056 | 36 | 225 | 4.8 | 12.9 | 0.00 | 0.00 | 0.00 | 48 | 1015.6 |
| 20260903192016 | 36 | 248 | 4.8 | 9.7 | 0.00 | 0.00 | 0.00 | 46 | 1015.8 |
| 20260903191016 | 37 | 248 | 4.8 | 12.9 | 0.00 | 0.00 | 0.00 | 50 | 1015.8 |
| 20260903190016 | 36 | 225 | 3.2 | 8.0 | 0.00 | 0.00 | 0.00 | 48 | 1015.9 |
| 20260903185016 | 36 | 248 | 4.8 | 12.9 | 0.00 | 0.00 | 0.00 | 48 | 1016.0 |
| 20260903184036 | 36 | 248 | 4.8 | 16.1 | 0.00 | 0.00 | 0.00 | 48 | 1016.0 |
| 20260903183016 | 36 | 270 | 3.2 | 11.3 | 0.00 | 0.00 | 0.00 | 51 | 1016.1 |
| 20260903182016 | 36 | 248 | 6.4 | 14.5 | 0.00 | 0.00 | 0.00 | 48 | 1016.3 |
| 20260903181016 | 36 | 248 | 4.8 | 12.9 | 0.00 | 0.00 | 0.00 | 51 | 1016.4 |
| 20260903180016 | 36 | 248 | 4.8 | 16.1 | 0.00 | 0.00 | 0.00 | 49 | 1016.5 |
| 20260903175016 | 36 | 248 | 3.2 | 8.0 | 0.00 | 0.00 | 0.00 | 53 | 1016.6 |
| 20260903174016 | 35 | 248 | 4.8 | 12.9 | 0.00 | 0.00 | 0.00 | 51 | 1016.7 |
| 20260903173016 | 37 | 248 | 6.4 | 17.7 | 0.00 | 0.00 | 0.00 | 48 | 1016.9 |
| 20260903172016 | 37 | 248 | 4.8 | 14.5 | 0.00 | 0.00 | 0.00 | 47 | 1016.8 |
| 20260903171036 | 37 | 248 | 4.8 | 12.9 | 0.00 | 0.00 | 0.00 | 48 | 1016.9 |
| 20260903170016 | 37 | 248 | 4.8 | 12.9 | 0.00 | 0.00 | 0.00 | 48 | 1016.9 |
| 20260903165016 | 37 | 248 | 3.2 | 11.3 | 0.00 | 0.00 | 0.00 | 50 | 1017.2 |
| 20260903164036 | 37 | 248 | 3.2 | 8.0 | 0.00 | 0.00 | 0.00 | 50 | 1017.3 |
| 20260903163016 | 36 | 248 | 1.6 | 9.7 | 0.00 | 0.00 | 0.00 | 52 | 1017.4 |
| 20260903162016 | 36 | 248 | 3.2 | 9.7 | 0.00 | 0.00 | 0.00 | 52 | 1017.5 |
| 20260903161016 | 36 | 248 | 3.2 | 11.3 | 0.00 | 0.00 | 0.00 | 51 | 1017.4 |
| 20260903160016 | 35 | 248 | 3.2 | 9.7 | 0.00 | 0.00 | 0.00 | 53 | 1017.5 |
| 20260903155056 | 35 | 248 | 3.2 | 11.3 | 0.00 | 0.00 | 0.00 | 55 | 1017.4 |
| 20260903154016 | 35 | 158 | 3.2 | 9.7 | 0.00 | 0.00 | 0.00 | 57 | 1017.4 |
| 20260903153016 | 34 | 248 | 3.2 | 8.0 | 0.00 | 0.00 | 0.00 | 61 | 1017.4 |
| 20260903152016 | 33 | 248 | 3.2 | 9.7 | 0.00 | 0.00 | 0.00 | 60 | 1017.4 |
| 20260903151016 | 33 | 248 | 3.2 | 9.7 | 0.00 | 0.00 | 0.00 | 62 | 1017.5 |
| 20260903150016 | 32 | 248 | 3.2 | 8.0 | 0.00 | 0.00 | 0.00 | 64 | 1017.5 |
| 20260903145036 | 32 | 248 | 1.6 | 6.4 | 0.00 | 0.00 | 0.00 | 66 | 1017.5 |
| 20260903144016 | 31 | 203 | 1.6 | 3.2 | 0.00 | 0.00 | 0.00 | 67 | 1017.5 |
| 20260903143016 | 30 | 0.0 | 4.8 | 0.00 | 0.00 | 0.00 | 71 | 1017.5 | |
| 20260903142036 | 30 | 0.0 | 3.2 | 0.00 | 0.00 | 0.00 | 71 | 1017.6 | |
| 20260903141016 | 29 | 248 | 1.6 | 4.8 | 0.00 | 0.00 | 0.00 | 73 | 1017.6 |
| 20260903140016 | 28 | 225 | 3.2 | 8.0 | 0.00 | 0.00 | 0.00 | 77 | 1017.7 |
| 20260903135016 | 27 | 248 | 1.6 | 8.0 | 0.00 | 0.00 | 0.00 | 79 | 1017.6 |
| 20260903134016 | 26 | 0.0 | 0.0 | 0.00 | 0.00 | 0.00 | 83 | 1017.8 | |
| 20260903133016 | 26 | 0.0 | 0.0 | 0.00 | 0.00 | 0.00 | 87 | 1017.7 | |
| 20260903132016 | 25 | 0.0 | 0.0 | 0.00 | 0.00 | 0.00 | 90 | 1017.7 | |
| 20260903131016 | 24 | 0.0 | 0.0 | 0.00 | 0.00 | 0.00 | 92 | 1017.9 | |
| 20260903130017 | 23 | 0.0 | 0.0 | 0.00 | 0.00 | 0.00 | 93 | 1018.0 | |
| 20260903125016 | 23 | 0.0 | 0.0 | 0.00 | 0.00 | 0.00 | 93 | 1018.0 | |
| 20260903124016 | 23 | 0.0 | 0.0 | 0.00 | 0.00 | 0.00 | 94 | 1018.0 | |
| 20260903123016 | 23 | 0.0 | 0.0 | 0.00 | 0.00 | 0.00 | 94 | 1018.0 | |
| 20260903122016 | 23 | 0.0 | 0.0 | 0.00 | 0.00 | 0.00 | 94 | 1017.8 | |
| 20260903121036 | 23 | 0.0 | 0.0 | 0.00 | 0.00 | 0.00 | 94 | 1017.9 | |
| 20260903120036 | 23 | 0.0 | 0.0 | 0.00 | 0.00 | 0.00 | 93 | 1018.0 | |
| 20260903115056 | 22 | 0.0 | 0.0 | 0.00 | 0.00 | 0.00 | 93 | 1018.0 | |
| 20260903114016 | 22 | 0.0 | 0.0 | 0.00 | 0.00 | 0.00 | 93 | 1017.9 | |
| 20260903113016 | 22 | 0.0 | 0.0 | 0.00 | 0.00 | 0.00 | 93 | 1017.9 | |
| 20260903112016 | 22 | 0.0 | 0.0 | 0.00 | 0.00 | 0.00 | 93 | 1017.7 | |
| 20260903111016 | 23 | 0.0 | 0.0 | 0.00 | 0.00 | 0.00 | 93 | 1017.6 | |
| 20260903110016 | 23 | 0.0 | 0.0 | 0.00 | 0.00 | 0.00 | 93 | 1017.6 | |
| 20260903105016 | 23 | 0.0 | 0.0 | 0.00 | 0.00 | 0.00 | 93 | 1017.3 | |
| 20260903104016 | 23 | 0.0 | 0.0 | 0.00 | 0.00 | 0.00 | 93 | 1017.2 | |
| 20260903103016 | 23 | 0.0 | 0.0 | 0.00 | 0.00 | 0.00 | 92 | 1017.3 | |
| 20260903102036 | 23 | 0.0 | 0.0 | 0.00 | 0.00 | 0.00 | 92 | 1017.4 | |
| 20260903101016 | 23 | 0.0 | 0.0 | 0.00 | 0.00 | 0.00 | 92 | 1017.3 | |
| 20260903100016 | 23 | 0.0 | 0.0 | 0.00 | 0.00 | 0.00 | 92 | 1017.3 | |
| 20260903095036 | 23 | 0.0 | 0.0 | 0.00 | 0.00 | 0.00 | 92 | 1017.3 | |
| 20260903094016 | 23 | 0.0 | 0.0 | 0.00 | 0.00 | 0.00 | 92 | 1017.3 | |
| 20260903093016 | 23 | 0.0 | 0.0 | 0.00 | 0.00 | 0.00 | 92 | 1017.2 | |
| 20260903092016 | 23 | 0.0 | 0.0 | 0.00 | 0.00 | 0.00 | 92 | 1017.2 | |
| 20260903091016 | 23 | 0.0 | 0.0 | 0.00 | 0.00 | 0.00 | 92 | 1017.2 | |
| 20260903090016 | 23 | 0.0 | 0.0 | 0.00 | 0.00 | 0.00 | 91 | 1017.1 | |
| 20260903085016 | 23 | 0.0 | 0.0 | 0.00 | 0.00 | 0.00 | 91 | 1017.0 | |
| 20260903084036 | 23 | 0.0 | 0.0 | 0.00 | 0.00 | 0.00 | 91 | 1017.0 | |
| 20260903083056 | 23 | 0.0 | 0.0 | 0.00 | 0.00 | 0.00 | 91 | 1017.0 | |
| 20260903082016 | 23 | 0.0 | 0.0 | 0.00 | 0.00 | 0.00 | 91 | 1016.9 | |
| 20260903081016 | 23 | 0.0 | 0.0 | 0.00 | 0.00 | 0.00 | 90 | 1016.9 | |
| 20260903080016 | 23 | 0.0 | 0.0 | 0.00 | 0.00 | 0.00 | 90 | 1016.7 | |
| 20260903075016 | 24 | 0.0 | 0.0 | 0.00 | 0.00 | 0.00 | 90 | 1016.8 | |
| 20260903074016 | 24 | 0.0 | 0.0 | 0.00 | 0.00 | 0.00 | 90 | 1016.8 | |
| 20260903073016 | 24 | 0.0 | 0.0 | 0.00 | 0.00 | 0.00 | 89 | 1016.8 | |
| 20260903072016 | 24 | 0.0 | 0.0 | 0.00 | 0.00 | 0.00 | 89 | 1016.7 | |
| 20260903071016 | 24 | 0.0 | 0.0 | 0.00 | 0.00 | 0.00 | 89 | 1016.6 | |
| 20260903070056 | 24 | 0.0 | 0.0 | 0.00 | 0.00 | 0.00 | 89 | 1016.5 | |
| 20260903065016 | 25 | 0.0 | 0.0 | 0.00 | 0.00 | 0.00 | 88 | 1016.7 | |
| 20260903064016 | 25 | 0.0 | 0.0 | 0.00 | 0.00 | 0.00 | 88 | 1016.6 | |
| 20260903063036 | 25 | 0.0 | 0.0 | 0.00 | 0.00 | 0.00 | 87 | 1016.6 | |
| 20260903062016 | 25 | 0.0 | 0.0 | 0.00 | 0.00 | 0.00 | 86 | 1016.6 | |
| 20260903061016 | 25 | 0.0 | 0.0 | 0.00 | 0.00 | 0.00 | 86 | 1016.4 | |
| 20260903060016 | 25 | 0.0 | 0.0 | 0.00 | 0.00 | 0.00 | 85 | 1016.6 | |
| 20260903055016 | 25 | 0.0 | 0.0 | 0.00 | 0.00 | 0.00 | 85 | 1016.5 | |
| 20260903054016 | 25 | 0.0 | 0.0 | 0.00 | 0.00 | 0.00 | 85 | 1016.6 | |
| 20260903053016 | 25 | 0.0 | 0.0 | 0.00 | 0.00 | 0.00 | 85 | 1016.5 | |
| 20260903052016 | 26 | 0.0 | 0.0 | 0.00 | 0.00 | 0.00 | 84 | 1016.5 | |
| 20260903051016 | 26 | 0.0 | 0.0 | 0.00 | 0.00 | 0.00 | 84 | 1016.5 | |
| 20260903050016 | 26 | 0.0 | 0.0 | 0.00 | 0.00 | 0.00 | 84 | 1016.5 | |
| 20260903045016 | 26 | 0.0 | 0.0 | 0.00 | 0.00 | 0.00 | 83 | 1016.6 | |
| 20260903044016 | 26 | 0.0 | 0.0 | 0.00 | 0.00 | 0.00 | 83 | 1016.6 | |
| 20260903043036 | 26 | 0.0 | 0.0 | 0.00 | 0.00 | 0.00 | 83 | 1016.5 | |
| 20260903042016 | 26 | 0.0 | 0.0 | 0.00 | 0.00 | 0.00 | 83 | 1016.5 | |
| 20260903041036 | 26 | 0.0 | 0.0 | 0.00 | 0.00 | 0.00 | 83 | 1016.4 | |
| 20260903040016 | 27 | 0.0 | 0.0 | 0.00 | 0.00 | 0.00 | 82 | 1016.5 | |
| 20260903035016 | 27 | 0.0 | 0.0 | 0.00 | 0.00 | 0.00 | 82 | 1016.5 | |
| 20260903033016 | 27 | 0.0 | 0.0 | 0.00 | 0.00 | 0.00 | 81 | 1016.4 | |
| 20260903032016 | 27 | 0.0 | 0.0 | 0.00 | 0.00 | 0.00 | 81 | 1016.3 | |
| 20260903031016 | 27 | 0.0 | 0.0 | 0.00 | 0.00 | 0.00 | 80 | 1016.4 | |
| 20260903030016 | 27 | 0.0 | 0.0 | 0.00 | 0.00 | 0.00 | 79 | 1016.5 | |
| 20260903025016 | 27 | 0.0 | 0.0 | 0.00 | 0.00 | 0.00 | 78 | 1016.4 | |
| 20260903024036 | 27 | 0.0 | 0.0 | 0.00 | 0.00 | 0.00 | 78 | 1016.4 | |
| 20260903023016 | 28 | 0.0 | 0.0 | 0.00 | 0.00 | 0.00 | 77 | 1016.2 | |
| 20260903022016 | 28 | 0.0 | 0.0 | 0.00 | 0.00 | 0.00 | 76 | 1016.3 | |
| 20260903021016 | 28 | 0.0 | 0.0 | 0.00 | 0.00 | 0.00 | 75 | 1016.4 | |
| 20260903020016 | 28 | 0.0 | 0.0 | 0.00 | 0.00 | 0.00 | 75 | 1016.4 | |
| 20260903015016 | 28 | 0.0 | 0.0 | 0.00 | 0.00 | 0.00 | 75 | 1016.3 | |
| 20260903014016 | 29 | 0.0 | 0.0 | 0.00 | 0.00 | 0.00 | 75 | 1016.3 | |
| 20260903013036 | 29 | 0.0 | 0.0 | 0.00 | 0.00 | 0.00 | 75 | 1016.1 | |
| 20260903012036 | 29 | 0.0 | 0.0 | 0.00 | 0.00 | 0.00 | 73 | 1016.0 | |
| 20260903011016 | 29 | 0.0 | 0.0 | 0.00 | 0.00 | 0.00 | 73 | 1015.9 | |
| 20260903010016 | 29 | 0.0 | 0.0 | 0.00 | 0.00 | 0.00 | 73 | 1015.9 | |
| 20260903005016 | 30 | 0.0 | 0.0 | 0.00 | 0.00 | 0.00 | 72 | 1015.9 | |
| 20260903004016 | 30 | 0.0 | 1.6 | 0.00 | 0.00 | 0.00 | 71 | 1015.9 | |
| 20260903003016 | 31 | 0.0 | 0.0 | 0.00 | 0.00 | 0.00 | 69 | 1015.9 | |
| 20260903002016 | 31 | 0.0 | 0.0 | 0.00 | 0.00 | 0.00 | 67 | 1015.9 | |
| 20260903001016 | 32 | 0.0 | 0.0 | 0.00 | 0.00 | 0.00 | 64 | 1015.9 | |
| 20260903000016 | 32 | 0.0 | 1.6 | 0.00 | 0.00 | 0.00 | 61 | 1015.8 | |
| 20260902235016 | 33 | 248 | 1.6 | 4.8 | 0.00 | 0.00 | 0.00 | 55 | 1015.7 |
| 20260902234016 | 33 | 248 | 3.2 | 8.0 | 0.00 | 0.00 | 0.00 | 53 | 1015.9 |
| 20260902233016 | 33 | 248 | 3.2 | 9.7 | 0.00 | 0.00 | 0.00 | 52 | 1015.8 |
| 20260902232016 | 34 | 248 | 3.2 | 6.4 | 0.00 | 0.00 | 0.00 | 51 | 1015.9 |
| 20260902231016 | 34 | 248 | 4.8 | 9.7 | 0.00 | 0.00 | 0.00 | 51 | 1015.9 |
| 20260902230016 | 34 | 248 | 4.8 | 11.3 | 0.00 | 0.00 | 0.00 | 51 | 1015.9 |
| 20260902225016 | 35 | 248 | 4.8 | 9.7 | 0.00 | 0.00 | 0.00 | 50 | 1016.0 |
| 20260902224016 | 35 | 248 | 4.8 | 11.3 | 0.00 | 0.00 | 0.00 | 51 | 1016.0 |
| 20260902223016 | 35 | 248 | 4.8 | 9.7 | 0.00 | 0.00 | 0.00 | 50 | 1015.9 |
| 20260902222056 | 35 | 248 | 4.8 | 12.9 | 0.00 | 0.00 | 0.00 | 50 | 1016.2 |
| 20260902221016 | 35 | 248 | 4.8 | 14.5 | 0.00 | 0.00 | 0.00 | 51 | 1016.2 |
| 20260902220056 | 35 | 248 | 6.4 | 12.9 | 0.00 | 0.00 | 0.00 | 49 | 1016.1 |
| 20260902215016 | 35 | 248 | 4.8 | 11.3 | 0.00 | 0.00 | 0.00 | 49 | 1016.1 |
| 20260902214016 | 35 | 248 | 4.8 | 12.9 | 0.00 | 0.00 | 0.00 | 49 | 1016.3 |
| 20260902213016 | 36 | 270 | 4.8 | 16.1 | 0.00 | 0.00 | 0.00 | 50 | 1016.3 |
| 20260902212016 | 36 | 248 | 4.8 | 12.9 | 0.00 | 0.00 | 0.00 | 50 | 1016.5 |
| 20260902211016 | 36 | 248 | 4.8 | 12.9 | 0.00 | 0.00 | 0.00 | 50 | 1016.5 |
| 20260902210016 | 36 | 248 | 4.8 | 16.1 | 0.00 | 0.00 | 0.00 | 49 | 1016.7 |